[[[{"header":{"parameterUnit":"kt","parameterCategory":2,"dx":1,"dy":1,"la1":30.253999710083008,"la2":30.299108505249023,"lo1":-89.0895004272461,"lo2":-89.04439544677734,"nx":28,"ny":28,"refTime":"2022-10-20T21:00:00:Z","depth":"0","parameterNumber":2,"parameterNumberName":"U-component_of_CURRENTS"},"data":[0.3345,0.3302,0.3336,0.3245,0.3259,0.3224,0.3228,0.3317,0.3511,0.3832,0.4161,0.4471,0.513,0.5966,0.645,0.6543,0.6091,0.5806,0.564,0.6498,0.6506,0.6513,0.6379,0.6425,0.6424,0.4562,0.4548,0.4538,0.345,0.3486,0.3504,0.3509,0.3479,0.3564,0.3611,0.3626,0.3701,0.4,0.4228,0.4898,0.5537,0.6169,0.6869,0.6898,0.6601,0.6803,0.6079,0.6008,0.6944,0.683,0.6973,0.6973,0.6974,0.6974,0.6974,0.6974,0.3655,0.3653,0.3694,0.3686,0.3719,0.3737,0.3728,0.3852,0.3943,0.4136,0.4401,0.4734,0.5446,0.6286,0.657,0.7012,0.6625,0.7008,0.6868,0.6294,0.6042,0.6827,0.7155,0.7155,0.7155,0.7155,0.7155,0,0.3809,0.3847,0.3852,0.3883,0.39,0.393,0.3998,0.4018,0.4212,0.4348,0.4563,0.478,0.5406,0.588,0.6449,0.6753,0.659,0.6987,0.6885,0.6668,0.5927,0.5789,0.6611,0.701,0.7009,0.7008,0.7007,0.7007,0.4012,0.3979,0.4053,0.4055,0.4074,0.4112,0.4141,0.4297,0.4352,0.4614,0.4664,0.502,0.5269,0.5898,0.631,0.6776,0.6498,0.6957,0.6874,0.6673,0.6514,0.5906,0.5777,0.6997,0.6998,0.6999,0.7,0,0.4127,0.4178,0.4146,0.4233,0.4249,0.4252,0.4345,0.4388,0.4547,0.4647,0.4714,0.502,0.5388,0.5708,0.614,0.6318,0.6471,0.6727,0.6604,0.661,0.6592,0.643,0.6138,0.6011,0.6972,0.6974,0.6975,0,0.432,0.4277,0.4369,0.4334,0.4333,0.4404,0.4429,0.4516,0.4655,0.473,0.4951,0.5062,0.5405,0.5669,0.5897,0.6244,0.6337,0.6382,0.6406,0.636,0.6344,0.6276,0.6109,0.6526,0.6523,0.6521,0.6519,0,0.4458,0.445,0.4417,0.441,0.4454,0.4471,0.4518,0.4637,0.4676,0.4859,0.4936,0.52,0.5292,0.5605,0.5805,0.5756,0.6213,0.6158,0.6278,0.6272,0.6311,0.6292,0.6569,0.6515,0.6515,0.6514,0.6513,0,0.4572,0.4578,0.452,0.4548,0.4543,0.4532,0.4606,0.4623,0.4779,0.484,0.4998,0.5059,0.5255,0.5237,0.5621,0.5488,0.5646,0.573,0.5745,0.5671,0.5556,0.5864,0.6137,0.6028,0.5822,0.5817,0.5812,0,0.4697,0.465,0.4665,0.4613,0.4581,0.4634,0.4652,0.4709,0.4762,0.4839,0.4936,0.4963,0.4981,0.4981,0.516,0.5233,0.5423,0.5203,0.5513,0.5521,0.5508,0.5755,0.5746,0.6043,0.5739,0.5747,0.5752,0,0.4769,0.4768,0.4754,0.4742,0.4734,0.4712,0.4731,0.476,0.4804,0.4834,0.4905,0.4879,0.4949,0.4903,0.4861,0.4998,0.5293,0.4979,0.4985,0.5156,0.571,0.5656,0.5699,0.5344,0.5353,0.536,0.5695,0,0.4851,0.4828,0.4811,0.4789,0.4776,0.474,0.4746,0.4757,0.4777,0.4806,0.4835,0.4789,0.4779,0.4729,0.4669,0.481,0.4796,0.4768,0.4743,0.4868,0.498,0.5026,0.4437,0.4434,0.4431,0.4429,0,0,0.4916,0.4883,0.4895,0.4861,0.4844,0.4858,0.4817,0.4815,0.4766,0.4796,0.4766,0.4713,0.4618,0.4615,0.4626,0.4543,0.4635,0.4489,0.4746,0.478,0.4813,0.4932,0.4978,0.4424,0.4423,0.4422,0.4421,0,0.4929,0.4942,0.4916,0.4893,0.4869,0.4861,0.4855,0.4825,0.4823,0.4774,0.4753,0.4747,0.4566,0.4551,0.4502,0.451,0.4508,0.4426,0.4522,0.4716,0.4754,0.4789,0.4913,0.4957,0.4415,0.4415,0.4415,0,0.4965,0.496,0.4952,0.4921,0.4906,0.4873,0.488,0.4851,0.4834,0.4764,0.4721,0.4676,0.4559,0.449,0.4439,0.4399,0.4437,0.4297,0.4308,0.4335,0.4535,0.4575,0.4612,0.4163,0.4163,0.4163,0,0,0.4974,0.4967,0.4939,0.4921,0.4911,0.4891,0.4873,0.4861,0.4819,0.4801,0.4727,0.4643,0.4571,0.4503,0.4414,0.4316,0.4384,0.4275,0.4287,0.4297,0.433,0.453,0.4567,0.4164,0.4164,0.4164,0,0,0.4972,0.4957,0.4965,0.4942,0.491,0.4875,0.4858,0.4854,0.4806,0.4811,0.4716,0.4684,0.4606,0.4502,0.4523,0.4378,0.4318,0.431,0.4464,0.4476,0.4487,0.4562,0.4424,0,0,0,0,0,0.498,0.4961,0.4969,0.4964,0.4928,0.4878,0.4871,0.4853,0.4873,0.4848,0.4806,0.4718,0.4507,0.4523,0.4484,0.4465,0.4165,0.4165,0.4165,0.4339,0.4354,0.4366,0,0,0,0,0,0,0.4978,0.4972,0.4969,0.4939,0.493,0.488,0.4895,0.4889,0.4874,0.4873,0.474,0.4713,0.4637,0.4533,0.45,0.4485,0.4434,0.4165,0.4165,0.4165,0.4344,0.4356,0.4367,0,0,0,0,0,0.4976,0.4972,0.4922,0.4938,0.493,0.4902,0.4896,0.4891,0.4878,0.4756,0.4733,0.4866,0.464,0.4604,0.4513,0.4504,0.4456,0.4445,0.4165,0.4165,0.4165,0.435,0,0,0,0,0,0,0.4975,0.4961,0.492,0.4916,0.4945,0.4903,0.4898,0.4893,0.4758,0.4741,0.4874,0.4873,0.464,0.4613,0.4586,0.4519,0.4475,0.4462,0.4455,0.4165,0.4165,0.4164,0,0,0,0,0,0,0.4963,0.4958,0.4918,0.4928,0.4925,0.4904,0.49,0.4773,0.4751,0.4881,0.488,0.4874,0.4633,0.4618,0.4597,0.4404,0.4488,0.4477,0.4469,0.4464,0.4165,0.4165,0,0,0,0,0,0,0.496,0.4956,0.4929,0.4927,0.4924,0.488,0.4785,0.4719,0.486,0.4883,0.4861,0.4862,0.4636,0.4616,0.4605,0.4422,0.4409,0.4488,0.448,0.4474,0.4471,0,0,0,0,0,0,0,0.4958,0.4997,0.4944,0.4926,0.4924,0.4881,0.488,0.4879,0.486,0.486,0.4861,0.4861,0.4554,0.4542,0.4529,0.4437,0,0,0.4489,0.4483,0,0,0,0,0,0,0,0,0.4998,0.4997,0.4943,0.4943,0.4942,0.4881,0.488,0.4879,0.486,0.486,0.4861,0.4861,0.4551,0.4541,0.453,0,0,0,0,0,0,0,0,0,0,0,0,0,0,0,0.4943,0.4943,0,0.4881,0.488,0.4879,0.486,0.486,0.4861,0.4861,0.4548,0.454,0.4531,0,0,0,0,0,0,0,0,0,0,0,0,0,0,0,0,0,0,0,0,0,0,0,0,0,0,0,0,0,0,0,0,0,0,0,0,0,0,0,0,0,0,0,0,0,0,0,0,0,0,0,0,0,0,0,0,0,0,0,0,0,0,0,0,0,0,0,0,0]}],[{"header":{"parameterUnit":"kt","parameterCategory":2,"dx":1,"dy":1,"la1":30.253999710083008,"la2":30.299108505249023,"lo1":-89.0895004272461,"lo2":-89.04439544677734,"nx":28,"ny":28,"refTime":"2022-10-20T21:00:00:Z","depth":"0","parameterNumber":3,"parameterNumberName":"V-component_of_CURRENTS"},"data":[0.0916,0.097,0.0989,0.114,0.1219,0.1402,0.1519,0.1789,0.2084,0.27,0.316,0.3502,0.3727,0.2665,0.1992,0.1744,0.1378,0.1189,0.0998,0.1338,0.134,0.1341,0.1265,0.132,0.1319,0.068,0.0675,0.0671,0.0863,0.0885,0.0952,0.1057,0.1161,0.1192,0.1368,0.1524,0.1753,0.2103,0.2343,0.2827,0.2698,0.2485,0.215,0.1708,0.1395,0.1475,0.1314,0.1254,0.1604,0.1542,0.1656,0.1656,0.1656,0.1656,0.1656,0.1657,0.0795,0.0827,0.0865,0.0951,0.1034,0.1154,0.126,0.1389,0.1563,0.1853,0.1927,0.2242,0.2314,0.2193,0.1906,0.1609,0.1493,0.154,0.1469,0.1301,0.116,0.139,0.1595,0.1594,0.1593,0.1592,0.1591,0,0.0746,0.0757,0.0787,0.0867,0.0935,0.1026,0.1125,0.1212,0.1334,0.1472,0.1686,0.182,0.1882,0.1931,0.1813,0.1727,0.1443,0.1568,0.1476,0.1422,0.1164,0.1049,0.1313,0.1625,0.1624,0.1623,0.1623,0.1622,0.0709,0.0713,0.0757,0.0799,0.0804,0.0887,0.0957,0.103,0.113,0.1332,0.1418,0.1561,0.1677,0.174,0.1619,0.1583,0.141,0.1553,0.1415,0.1253,0.1135,0.0937,0.0855,0.161,0.1612,0.1613,0.1614,0,0.0692,0.0663,0.0698,0.0719,0.0735,0.0802,0.0893,0.0992,0.1059,0.121,0.1248,0.1333,0.1441,0.1395,0.1492,0.1367,0.1341,0.1381,0.1404,0.138,0.1171,0.1077,0.1141,0.1067,0.1381,0.1381,0.1381,0,0.0639,0.066,0.0632,0.0636,0.0717,0.0703,0.0821,0.0854,0.0945,0.1056,0.1038,0.1142,0.1114,0.1193,0.1147,0.1175,0.1289,0.1082,0.1061,0.1115,0.1103,0.1068,0.0975,0.1228,0.1227,0.1225,0.1224,0,0.0617,0.0578,0.0595,0.0584,0.058,0.0617,0.0645,0.0701,0.0759,0.0847,0.0904,0.096,0.0989,0.1051,0.0991,0.0914,0.1152,0.1039,0.098,0.0969,0.1102,0.1091,0.1277,0.1222,0.1221,0.1221,0.122,0,0.0546,0.0527,0.0509,0.0549,0.0542,0.0535,0.0623,0.0624,0.0676,0.0678,0.0707,0.0669,0.0732,0.0619,0.0746,0.0655,0.0669,0.0665,0.0672,0.0609,0.0459,0.0764,0.0925,0.0834,0.0654,0.065,0.0646,0,0.0573,0.0517,0.0478,0.0467,0.0443,0.0401,0.0427,0.0408,0.0405,0.0452,0.0404,0.0412,0.0277,0.0274,0.0347,0.0332,0.044,0.0285,0.0478,0.0484,0.0454,0.0578,0.0666,0.0853,0.0591,0.0597,0.0601,0,0.0584,0.0493,0.0487,0.0494,0.0391,0.0343,0.033,0.0308,0.0366,0.0249,0.0334,0.021,0.0189,0.0164,0.0077,0.0169,0.0337,0.0123,0.0127,0.0261,0.0601,0.0508,0.0535,0.0339,0.0347,0.0353,0.0558,0,0.059,0.0555,0.0511,0.0444,0.0385,0.0309,0.0238,0.0195,0.0158,0.0127,0.01,-0.0006,-0.0024,-0.009,-0.0152,-0.0041,-0.0064,-0.0101,-0.0037,0.0012,0.0074,0.0109,-0.0316,-0.0317,-0.0318,-0.0319,0,0,0.0651,0.0597,0.0508,0.0447,0.0409,0.0291,0.0247,0.0186,0.0038,0.0051,-0.0001,-0.0109,-0.0183,-0.0167,-0.0184,-0.0278,-0.0217,-0.0197,-0.0076,-0.0049,-0.0024,0.0044,0.0078,-0.0321,-0.0322,-0.0322,-0.0322,0,0.0652,0.0604,0.0555,0.0478,0.0344,0.0285,0.0253,0.011,0.0089,-0.0007,-0.0047,-0.0098,-0.0223,-0.0218,-0.0239,-0.0298,-0.0227,-0.0353,-0.0216,-0.0092,-0.0064,-0.0038,0.0033,0.0065,-0.0325,-0.0325,-0.0325,0,0.0685,0.062,0.059,0.0459,0.0373,0.0304,0.0248,0.0129,0.0107,0.0024,-0.0021,-0.0105,-0.0169,-0.0225,-0.0258,-0.0242,-0.0201,-0.0302,-0.0299,-0.0214,-0.0082,-0.0053,-0.0028,-0.0327,-0.0327,-0.0326,0,0,0.0688,0.0642,0.0514,0.045,0.0397,0.028,0.021,0.0158,0.0061,0.0027,-0.0022,-0.0079,-0.0138,-0.0158,-0.0233,-0.0299,-0.0225,-0.0295,-0.0295,-0.0294,-0.0211,-0.0079,-0.0055,-0.0323,-0.0323,-0.0323,0,0,0.0681,0.057,0.0557,0.048,0.0368,0.0226,0.0167,0.012,0.0034,0.004,0.0003,-0.0012,-0.0087,-0.0127,-0.009,-0.0173,-0.0184,-0.0194,-0.0106,-0.0107,-0.0107,0.0022,-0.0047,0,0,0,0,0,0.0626,0.0582,0.0571,0.0544,0.038,0.0231,0.0203,0.0139,0.0145,0.0102,0.0046,0.0067,-0.0105,-0.0074,-0.0096,-0.007,-0.0289,-0.0295,-0.0301,-0.0208,-0.0209,-0.0209,0,0,0,0,0,0,0.0614,0.0586,0.057,0.0435,0.0395,0.0235,0.0254,0.0234,0.015,0.0151,0.0072,0.0065,0.0049,-0.0063,-0.0083,-0.0056,-0.004,-0.0292,-0.0297,-0.0302,-0.0209,-0.0209,-0.0209,0,0,0,0,0,0.0605,0.0581,0.0355,0.0433,0.0398,0.0286,0.0258,0.0242,0.0182,0.0113,0.0104,0.0138,0.0047,0.003,-0.0075,-0.0045,-0.0027,-0.0034,-0.0295,-0.0299,-0.0303,-0.0209,0,0,0,0,0,0,0.0597,0.056,0.0345,0.0328,0.047,0.0294,0.0273,0.0249,0.0151,0.0136,0.0181,0.0183,0.0045,0.0032,0.0019,-0.0038,-0.0016,-0.0023,-0.0028,-0.0298,-0.0301,-0.0304,0,0,0,0,0,0,0.057,0.0548,0.0336,0.0388,0.0377,0.0301,0.0283,0.0196,0.0153,0.0227,0.0223,0.0183,0.0087,0.0033,0.0023,-0.0113,-0.0007,-0.0015,-0.0019,-0.0023,-0.0301,-0.0303,0,0,0,0,0,0,0.0558,0.0538,0.0393,0.0384,0.0375,0.0188,0.0225,0.0081,0.014,0.0235,0.0148,0.0152,0.0089,0.0077,0.0025,-0.0106,-0.0112,-0.0008,-0.0013,-0.0016,-0.0018,0,0,0,0,0,0,0,0.0547,0.0718,0.0436,0.0381,0.0373,0.0172,0.0168,0.0164,0.014,0.0144,0.0147,0.0151,0.0033,0.0025,0.0017,-0.0101,0,0,-0.0007,-0.001,0,0,0,0,0,0,0,0,0.0722,0.0719,0.0436,0.0432,0.0428,0.0171,0.0168,0.0165,0.0141,0.0144,0.0147,0.0149,0.0031,0.0025,0.0018,0,0,0,0,0,0,0,0,0,0,0,0,0,0,0,0.0435,0.0432,0,0.0171,0.0168,0.0166,0.0141,0.0144,0.0146,0.0148,0.0029,0.0024,0.0019,0,0,0,0,0,0,0,0,0,0,0,0,0,0,0,0,0,0,0,0,0,0,0,0,0,0,0,0,0,0,0,0,0,0,0,0,0,0,0,0,0,0,0,0,0,0,0,0,0,0,0,0,0,0,0,0,0,0,0,0,0,0,0,0,0,0,0,0,0]}]],[[{"header":{"parameterUnit":"kt","parameterCategory":2,"dx":1,"dy":1,"la1":30.253999710083008,"la2":30.299108505249023,"lo1":-89.0895004272461,"lo2":-89.04439544677734,"nx":28,"ny":28,"refTime":"2022-10-20T21:00:00:Z","depth":"2","parameterNumber":2,"parameterNumberName":"U-component_of_CURRENTS"},"data":[-0.0678,-0.0539,-0.0475,-0.0234,-0.0113,0.0077,0.0194,0.0359,0.0539,0.0815,0.093,0.1125,0.113,0.0878,0.0804,0.0683,0.0607,0.06,0.1159,0.0622,0.0626,0.0529,0.0361,0,0,0,0,0,-0.0736,-0.0648,-0.0526,-0.0364,-0.0225,-0.0164,0.004,0.0148,0.0451,0.0749,0.107,0.1035,0.1137,0.1176,0.1109,0.1178,0.0939,0.099,0.0535,0.0537,0.0539,0.043,0.0518,0.0519,0.0519,0.0519,0,0,-0.0831,-0.0765,-0.065,-0.0506,-0.0386,-0.0229,-0.0117,0.0077,0.0328,0.066,0.0889,0.1168,0.1196,0.1485,0.1512,0.142,0.149,0.112,0.1101,0.1086,0.1024,0.0993,0.126,0.1264,0.1267,0.1271,0.1273,0,-0.0898,-0.0849,-0.077,-0.0625,-0.0504,-0.0387,-0.0221,-0.0112,0.0085,0.0312,0.0681,0.0928,0.1318,0.1392,0.1604,0.1544,0.1093,0.1165,0.1387,0.0436,0.0379,0.0374,0.0355,0.0544,0.0545,0.0545,0.0545,0.0545,-0.0976,-0.0915,-0.0786,-0.0714,-0.0652,-0.0517,-0.041,-0.0289,-0.0161,0.0161,0.0294,0.0634,0.0897,0.1247,0.1295,0.1429,0.128,0.1148,0.0904,0.1022,0.103,0.0993,0.0959,0.0549,0.0548,0.0548,0.0548,0,-0.1019,-0.0979,-0.0866,-0.0753,-0.0705,-0.0605,-0.0452,-0.0337,-0.021,-0.0003,0.0072,0.0269,0.0547,0.0596,0.0766,0.0749,0.0894,0.0982,0.0601,0.0606,0.092,0.0898,0.1273,0.1284,0.1293,0.13,0.1306,0,-0.1086,-0.0999,-0.0926,-0.0872,-0.0738,-0.0687,-0.0535,-0.0461,-0.0326,-0.0176,-0.014,0.004,0.0073,0.0242,0.0246,0.0508,0.0452,0.0552,0.06,0.0247,0.0236,0.0247,0.0231,0.0362,0.0359,0.0358,0.0356,0,-0.1148,-0.1062,-0.0972,-0.094,-0.0843,-0.0764,-0.0703,-0.0601,-0.0518,-0.0375,-0.0259,-0.0167,-0.003,0.0023,0.0134,0.0043,0.0351,0.0224,0.0473,0.0488,0.0273,0.0267,0.0354,0.0353,0.0353,0.0352,0.0351,0,-0.1205,-0.1161,-0.1073,-0.0953,-0.0921,-0.0872,-0.0722,-0.0682,-0.0579,-0.0516,-0.0426,-0.0368,-0.0251,-0.0309,-0.0123,-0.0181,-0.0108,-0.0059,-0.0048,0.0206,0.019,0.0065,0.016,0.0062,0.0058,0.0055,0.0053,0,-0.1248,-0.1182,-0.1165,-0.1073,-0.1019,-0.0973,-0.0925,-0.086,-0.0801,-0.0696,-0.0653,-0.053,-0.0577,-0.0471,-0.043,-0.0308,-0.0235,-0.0365,-0.0084,-0.0075,0.0101,0.0247,-0.0106,0.0112,0.0014,0.0018,0.0021,0,-0.1279,-0.1224,-0.1204,-0.114,-0.1095,-0.1065,-0.1026,-0.0954,-0.0865,-0.0841,-0.0717,-0.0662,-0.0601,-0.0537,-0.0483,-0.0418,-0.03,-0.0366,-0.036,-0.0278,-0.0054,0.0164,0.0212,-0.0274,-0.027,-0.0267,-0.001,0,-0.1246,-0.1219,-0.1215,-0.1157,-0.114,-0.1105,-0.1073,-0.1033,-0.0973,-0.0935,-0.082,-0.0781,-0.0647,-0.0627,-0.0598,-0.0465,-0.0411,-0.0422,-0.0395,-0.0359,-0.0251,-0.0227,-0.0495,-0.0494,-0.0493,-0.0492,0,0,-0.1239,-0.122,-0.1214,-0.1191,-0.1154,-0.112,-0.1081,-0.1071,-0.101,-0.0956,-0.0945,-0.0774,-0.0724,-0.0604,-0.0584,-0.0574,-0.0482,-0.0488,-0.0387,-0.0376,-0.0366,-0.0262,-0.024,-0.0491,-0.049,-0.049,-0.049,0,-0.1216,-0.1219,-0.121,-0.1193,-0.1146,-0.1127,-0.111,-0.1066,-0.1022,-0.098,-0.09,-0.0829,-0.0724,-0.0652,-0.06,-0.0574,-0.045,-0.0507,-0.0472,-0.0385,-0.0375,-0.0366,-0.0262,-0.0243,-0.0488,-0.0488,-0.0488,0,-0.1183,-0.1167,-0.1169,-0.1167,-0.114,-0.1122,-0.1084,-0.1057,-0.1022,-0.0958,-0.0883,-0.0824,-0.0731,-0.0658,-0.0609,-0.0592,-0.0426,-0.0492,-0.0494,-0.046,-0.0366,-0.0355,-0.0346,-0.0468,-0.0468,-0.0469,0,0,-0.1155,-0.1156,-0.1138,-0.1159,-0.1147,-0.1104,-0.1095,-0.1047,-0.1004,-0.0974,-0.0902,-0.0807,-0.0739,-0.0679,-0.0622,-0.0566,-0.0495,-0.0494,-0.0495,-0.0496,-0.0464,-0.0371,-0.036,-0.047,-0.047,-0.047,0,0,-0.1138,-0.1113,-0.1084,-0.1118,-0.1099,-0.1079,-0.1072,-0.1032,-0.0981,-0.0937,-0.0857,-0.0832,-0.0749,-0.0693,-0.0726,-0.0564,-0.0554,-0.0547,-0.0607,-0.0608,-0.0608,-0.0585,-0.0634,0,0,0,0,0,-0.1083,-0.1123,-0.1098,-0.1099,-0.1098,-0.1104,-0.1102,-0.104,-0.098,-0.0977,-0.0906,-0.0829,-0.0681,-0.071,-0.0694,-0.0625,-0.0489,-0.0486,-0.0482,-0.0547,-0.0548,-0.0548,0,0,0,0,0,0,-0.1084,-0.1087,-0.1097,-0.1083,-0.1082,-0.1103,-0.1033,-0.1018,-0.0977,-0.0962,-0.0853,-0.0829,-0.0774,-0.0711,-0.0698,-0.0634,-0.0638,-0.0488,-0.0485,-0.0482,-0.0547,-0.0548,-0.0548,0,0,0,0,0,-0.1084,-0.1086,-0.1095,-0.1082,-0.1081,-0.1017,-0.1029,-0.1016,-0.097,-0.0893,-0.0867,-0.0915,-0.0779,-0.0758,-0.0703,-0.064,-0.0646,-0.0642,-0.0486,-0.0484,-0.0482,-0.0547,0,0,0,0,0,0,-0.1084,-0.1079,-0.1094,-0.1092,-0.1039,-0.1012,-0.1005,-0.1014,-0.09,-0.0879,-0.0954,-0.0943,-0.0784,-0.0766,-0.0751,-0.0645,-0.0653,-0.0649,-0.0646,-0.0484,-0.0482,-0.0481,0,0,0,0,0,0,-0.1077,-0.1078,-0.1093,-0.1042,-0.1033,-0.1008,-0.1001,-0.0969,-0.0895,-0.0965,-0.0954,-0.0949,-0.0765,-0.0773,-0.076,-0.0717,-0.0658,-0.0654,-0.0651,-0.0649,-0.0483,-0.0481,0,0,0,0,0,0,-0.1077,-0.1077,-0.1042,-0.1036,-0.1028,-0.0998,-0.0973,-0.0949,-0.0933,-0.0968,-0.092,-0.0915,-0.0771,-0.0759,-0.0768,-0.0731,-0.0721,-0.0658,-0.0655,-0.0653,-0.0652,0,0,0,0,0,0,0,-0.1076,-0.1085,-0.1106,-0.1031,-0.1023,-0.1069,-0.1069,-0.1068,-0.0932,-0.0927,-0.0922,-0.0917,-0.0683,-0.0679,-0.0674,-0.0743,0,0,-0.0659,-0.0657,0,0,0,0,0,0,0,0,-0.1083,-0.1085,-0.1106,-0.1105,-0.1105,-0.1069,-0.1069,-0.1069,-0.0931,-0.0927,-0.0923,-0.0919,-0.0682,-0.0678,-0.0674,0,0,0,0,0,0,0,0,0,0,0,0,0,0,0,-0.1106,-0.1105,0,-0.1069,-0.1069,-0.1069,-0.093,-0.0927,-0.0924,-0.0921,-0.0681,-0.0678,-0.0675,0,0,0,0,0,0,0,0,0,0,0,0,0,0,0,0,0,0,0,0,0,0,0,0,0,0,0,0,0,0,0,0,0,0,0,0,0,0,0,0,0,0,0,0,0,0,0,0,0,0,0,0,0,0,0,0,0,0,0,0,0,0,0,0,0,0,0,0,0]}],[{"header":{"parameterUnit":"kt","parameterCategory":2,"dx":1,"dy":1,"la1":30.253999710083008,"la2":30.299108505249023,"lo1":-89.0895004272461,"lo2":-89.04439544677734,"nx":28,"ny":28,"refTime":"2022-10-20T21:00:00:Z","depth":"2","parameterNumber":3,"parameterNumberName":"V-component_of_CURRENTS"},"data":[0.0131,0.0185,0.0242,0.0422,0.052,0.0707,0.0836,0.1067,0.118,0.1246,0.1143,0.1205,0.0716,0.0422,0.0177,-0.006,-0.0148,-0.0109,-0.0014,-0.0103,-0.0104,-0.0377,-0.0399,0,0,0,0,0,0.0132,0.0185,0.0251,0.036,0.0466,0.0495,0.0674,0.0817,0.1036,0.1123,0.1249,0.087,0.0725,0.0361,0.0025,-0.0095,-0.0164,-0.0248,-0.0351,-0.0356,-0.0361,-0.0373,-0.0307,-0.0307,-0.0307,-0.0307,0,0,0.015,0.0177,0.0229,0.0294,0.0363,0.0491,0.0586,0.0699,0.0829,0.0963,0.0943,0.0906,0.064,0.0364,0.0187,-0.0095,-0.008,-0.0272,-0.0279,-0.0286,-0.0289,-0.0214,-0.0203,-0.0203,-0.0203,-0.0202,-0.0202,0,0.0185,0.0184,0.0223,0.029,0.0322,0.0405,0.0451,0.0514,0.0545,0.0592,0.0675,0.068,0.052,0.0355,0.0131,0.0009,-0.0304,-0.0293,-0.03,-0.0456,-0.0382,-0.0352,-0.0347,-0.0408,-0.0409,-0.0409,-0.0409,-0.041,0.0203,0.0217,0.0269,0.03,0.0307,0.0318,0.0349,0.0352,0.0394,0.0396,0.0421,0.0313,0.031,0.0142,-0.0036,-0.0168,-0.0292,-0.0313,-0.0375,-0.0317,-0.0286,-0.0281,-0.0275,-0.0417,-0.0416,-0.0415,-0.0415,0,0.0213,0.0252,0.0287,0.0323,0.033,0.0318,0.0356,0.0367,0.0311,0.032,0.0273,0.0173,0.0066,-0.0091,-0.0256,-0.032,-0.0404,-0.0408,-0.0385,-0.0359,-0.0295,-0.0286,-0.0341,-0.0338,-0.0336,-0.0334,-0.0332,0,0.0258,0.0267,0.0323,0.0334,0.0342,0.0354,0.0337,0.0303,0.0273,0.0285,0.0126,0.0109,-0.0128,-0.0205,-0.0318,-0.0384,-0.0444,-0.0438,-0.0412,-0.0447,-0.0437,-0.0491,-0.0481,-0.058,-0.058,-0.0581,-0.0581,0,0.026,0.0327,0.0347,0.036,0.0406,0.0375,0.0369,0.0319,0.0318,0.0191,0.0171,-0.0007,-0.0094,-0.0225,-0.0342,-0.0355,-0.0456,-0.0463,-0.0411,-0.0399,-0.0456,-0.0444,-0.0582,-0.0582,-0.0582,-0.0582,-0.0582,0,0.0297,0.0342,0.0377,0.0415,0.0418,0.0414,0.0362,0.0358,0.028,0.0236,0.0113,0.0041,-0.0123,-0.0168,-0.0334,-0.0312,-0.037,-0.0401,-0.0399,-0.0336,-0.0259,-0.0262,-0.0305,-0.0307,-0.0305,-0.0304,-0.0303,0,0.0284,0.035,0.037,0.0395,0.042,0.0396,0.0384,0.0352,0.0308,0.0261,0.0135,0.0056,-0.0027,-0.01,-0.0197,-0.0265,-0.0325,-0.0295,-0.0327,-0.0327,-0.025,-0.029,-0.0331,-0.0287,-0.0287,-0.0289,-0.029,0,0.0268,0.0342,0.0332,0.0344,0.0357,0.0382,0.0357,0.0337,0.0299,0.0253,0.0192,0.0062,-0.0008,-0.0062,-0.0129,-0.0207,-0.0285,-0.0226,-0.0229,-0.0202,-0.0365,-0.0274,-0.0275,-0.0323,-0.0326,-0.0329,-0.0277,0,0.0278,0.0298,0.0319,0.0335,0.0355,0.0374,0.0366,0.0355,0.0308,0.0289,0.0199,0.0142,0.005,0.0017,-0.0022,-0.015,-0.0113,-0.0127,-0.0144,-0.0183,-0.0143,-0.0153,-0.0032,-0.0032,-0.0032,-0.0031,0,0,0.0218,0.0259,0.0274,0.0306,0.031,0.03,0.032,0.0319,0.0327,0.0296,0.0279,0.017,0.0116,0.0016,-0.0021,-0.0005,-0.0013,-0.0065,-0.0145,-0.0157,-0.0169,-0.0135,-0.0145,-0.0031,-0.0031,-0.0031,-0.0031,0,0.0219,0.0226,0.0252,0.0277,0.0295,0.0304,0.0303,0.0326,0.0299,0.03,0.0239,0.0171,0.0142,0.0069,0.0028,0.001,-0.0035,-0.0016,-0.0077,-0.0139,-0.0152,-0.0163,-0.0133,-0.0142,-0.003,-0.003,-0.003,0,0.0179,0.0197,0.0206,0.0257,0.0269,0.0297,0.0276,0.0297,0.029,0.0259,0.0231,0.0191,0.0137,0.0093,0.0064,0.0059,-0.0038,-0.0009,-0.001,-0.0048,-0.0115,-0.0128,-0.014,0.0007,0.0007,0.0007,0,0,0.017,0.0189,0.0224,0.0257,0.0268,0.0277,0.0293,0.028,0.0282,0.0272,0.0238,0.0184,0.0138,0.0104,0.0081,0.0056,0.0036,-0.0005,-0.0007,-0.0008,-0.0046,-0.0112,-0.0125,0.0008,0.0008,0.0008,0,0,0.0165,0.0191,0.0172,0.0219,0.0248,0.0287,0.03,0.0285,0.0278,0.024,0.0195,0.0182,0.0132,0.0115,0.0128,0.0025,0.0033,0.0031,0.0025,0.0023,0.0021,-0.0022,0.0056,0,0,0,0,0,0.0153,0.0193,0.0176,0.0184,0.0238,0.0301,0.0308,0.0289,0.0237,0.0258,0.0219,0.016,0.0104,0.0117,0.0111,0.004,0.0012,0.0012,0.0011,-0.0002,-0.0004,-0.0006,0,0,0,0,0,0,0.0157,0.0168,0.0175,0.0215,0.0226,0.0299,0.0243,0.024,0.0234,0.0225,0.0175,0.016,0.0131,0.0116,0.0111,0.0043,0.0057,0.0012,0.0011,0.0011,-0.0002,-0.0004,-0.0006,0,0,0,0,0,0.0159,0.0169,0.0251,0.0214,0.0224,0.0217,0.0239,0.0236,0.0225,0.019,0.0176,0.0202,0.0135,0.0124,0.0113,0.0045,0.006,0.0058,0.0012,0.0011,0.0011,-0.0003,0,0,0,0,0,0,0.0161,0.0177,0.0253,0.0257,0.0174,0.0211,0.0214,0.0233,0.0188,0.0178,0.0216,0.0209,0.0139,0.0129,0.0122,0.0046,0.0062,0.0061,0.006,0.0011,0.0011,0.001,0,0,0,0,0,0,0.0171,0.018,0.0255,0.0206,0.0203,0.0206,0.0209,0.0206,0.0184,0.0214,0.0209,0.0212,0.0108,0.0134,0.0127,0.0129,0.0064,0.0062,0.0061,0.0061,0.0011,0.0011,0,0,0,0,0,0,0.0175,0.0182,0.0205,0.0203,0.0201,0.0238,0.0199,0.0229,0.022,0.0214,0.0209,0.0204,0.011,0.0106,0.0132,0.0137,0.0131,0.0064,0.0063,0.0062,0.0062,0,0,0,0,0,0,0,0.0178,0.0129,0.023,0.0201,0.0199,0.0286,0.0287,0.0288,0.0219,0.0215,0.021,0.0207,0.0072,0.007,0.0069,0.0143,0,0,0.0064,0.0063,0,0,0,0,0,0,0,0,0.0126,0.0128,0.0231,0.0231,0.0231,0.0286,0.0287,0.0288,0.0218,0.0215,0.0211,0.0208,0.0071,0.007,0.0069,0,0,0,0,0,0,0,0,0,0,0,0,0,0,0,0.0231,0.0231,0,0.0286,0.0287,0.0288,0.0218,0.0215,0.0212,0.0209,0.0071,0.007,0.0069,0,0,0,0,0,0,0,0,0,0,0,0,0,0,0,0,0,0,0,0,0,0,0,0,0,0,0,0,0,0,0,0,0,0,0,0,0,0,0,0,0,0,0,0,0,0,0,0,0,0,0,0,0,0,0,0,0,0,0,0,0,0,0,0,0,0,0,0,0]}]],[[{"header":{"parameterUnit":"kt","parameterCategory":2,"dx":1,"dy":1,"la1":30.253999710083008,"la2":30.299108505249023,"lo1":-89.0895004272461,"lo2":-89.04439544677734,"nx":28,"ny":28,"refTime":"2022-10-20T21:00:00:Z","depth":"4","parameterNumber":2,"parameterNumberName":"U-component_of_CURRENTS"},"data":[-0.0088,-0.0046,0.0014,0.0102,0.0164,0.0227,0.0277,0.0314,0.0342,0.0383,0.0395,0.0427,0.045,0.0445,0.0491,0.0499,0.0416,0.0549,0.055,0.0388,0.0377,0.0367,0.0249,0,0,0,0,0,-0.0072,-0.0033,0.0026,0.011,0.0169,0.0212,0.0276,0.0302,0.035,0.0384,0.0403,0.0432,0.0474,0.0483,0.0502,0.0507,0.0439,0.0532,0.0393,0.0381,0.0369,0.0258,0,0,0,0,0,0,-0.0043,-0.002,0.0042,0.0112,0.0166,0.0229,0.0256,0.0307,0.0336,0.0385,0.041,0.0428,0.043,0.0455,0.0483,0.0494,0.044,0.0408,0.0395,0.0383,0.0304,0.0382,0.0548,0,0,0,0,0,-0.0016,0.0014,0.0052,0.0129,0.0172,0.0218,0.0265,0.0292,0.0316,0.0318,0.0366,0.0379,0.0422,0.0384,0.0443,0.0422,0.0302,0.0373,0.0364,0.0182,0.0238,0.0222,0.0207,0.0322,0.032,0.0319,0.0318,0,0.0009,0.0031,0.0108,0.014,0.017,0.0212,0.0238,0.0255,0.0268,0.0304,0.0309,0.0326,0.0296,0.0355,0.0288,0.0309,0.0279,0.0343,0.0149,0.0217,0.0207,0.0194,0.0182,0.0308,0.0309,0.031,0.0311,0,0.0014,0.0058,0.01,0.0159,0.0181,0.0201,0.0246,0.0257,0.0252,0.026,0.0238,0.0203,0.0193,0.0171,0.0127,0.012,0.0124,0.0165,0.0119,0.011,0.0169,0.0161,0.0292,0.0296,0.0299,0.0301,0.0304,0,0.0035,0.0062,0.0124,0.0143,0.018,0.0198,0.0221,0.0219,0.0219,0.0229,0.0153,0.0137,0.0017,0.003,-0.002,0.0016,-0.0019,-0.0017,-0.0014,-0.0169,-0.0175,-0.0194,-0.0203,-0.0135,-0.0137,-0.0139,-0.014,0,0.003,0.0081,0.0117,0.013,0.0174,0.0188,0.0208,0.0213,0.0223,0.0174,0.0156,0.007,0.0019,-0.0034,-0.0079,-0.0143,-0.0079,-0.0171,-0.0066,-0.0056,-0.0207,-0.0213,-0.0142,-0.0142,-0.0143,-0.0143,-0.0144,0,0.0035,0.0067,0.0108,0.0143,0.0153,0.0177,0.0195,0.021,0.0203,0.0173,0.0105,0.0041,-0.0035,-0.0102,-0.0153,-0.02,-0.0205,-0.0228,-0.0223,-0.0189,-0.0213,-0.0172,-0.0128,-0.0129,-0.013,-0.0131,-0.0132,0,0.0022,0.0068,0.0083,0.0117,0.0142,0.015,0.0171,0.0181,0.0169,0.0156,0.0078,0.0007,-0.0067,-0.0152,-0.0191,-0.0276,-0.025,-0.0304,-0.0293,-0.0289,-0.021,-0.0161,-0.036,-0.0148,-0.0146,-0.0144,-0.0143,0,0.0011,0.0055,0.0058,0.0076,0.0103,0.0123,0.0137,0.0161,0.0162,0.0118,0.0103,-0.0028,-0.0093,-0.0159,-0.0258,-0.0294,-0.0261,-0.0359,-0.0362,-0.0237,-0.0247,-0.0183,-0.0167,-0.036,-0.036,-0.036,-0.0154,0,0.0023,0.0042,0.0049,0.0084,0.0097,0.0112,0.0135,0.0133,0.0115,0.0116,0.0035,-0.0059,-0.0162,-0.0217,-0.0276,-0.0345,-0.0329,-0.04,-0.0412,-0.0414,-0.0319,-0.0311,-0.0432,-0.0433,-0.0434,-0.0435,0,0,0.0007,0.0037,0.0051,0.0071,0.0082,0.0091,0.011,0.0123,0.0102,0.0091,0.0059,-0.01,-0.0186,-0.0277,-0.0299,-0.0349,-0.0345,-0.0395,-0.0424,-0.0423,-0.0421,-0.0332,-0.0322,-0.0437,-0.0437,-0.0437,-0.0438,0,0.0021,0.0032,0.0046,0.0064,0.0079,0.0098,0.0097,0.0109,0.0105,0.0073,0.0009,-0.0073,-0.0201,-0.0262,-0.0316,-0.0355,-0.0396,-0.0426,-0.0404,-0.0432,-0.0429,-0.0427,-0.0337,-0.0328,-0.044,-0.044,-0.044,0,0.0025,0.0043,0.0048,0.0083,0.0092,0.0115,0.0109,0.0112,0.0125,0.0044,0.0009,-0.0074,-0.0176,-0.0259,-0.0313,-0.0329,-0.0416,-0.0444,-0.0441,-0.0429,-0.0458,-0.0455,-0.0453,-0.0476,-0.0476,-0.0475,0,0,0.0035,0.0047,0.0079,0.0089,0.0097,0.011,0.0114,0.0114,0.0091,0.0076,0.001,-0.008,-0.0158,-0.0221,-0.0294,-0.0382,-0.0373,-0.0443,-0.0441,-0.0439,-0.0427,-0.0455,-0.0453,-0.0474,-0.0474,-0.0474,0,0,0.0037,0.0069,0.0072,0.0089,0.0107,0.0132,0.0127,0.0128,0.0091,0.0065,-0.0009,-0.0036,-0.013,-0.0197,-0.0164,-0.033,-0.0344,-0.0352,-0.0278,-0.0277,-0.0276,-0.0236,-0.0233,0,0,0,0,0,0.0061,0.007,0.0072,0.0077,0.0109,0.0136,0.0139,0.0133,0.0115,0.0119,0.0057,-0.0008,-0.0193,-0.0165,-0.0192,-0.0246,-0.0455,-0.0458,-0.0462,-0.0387,-0.0385,-0.0384,0,0,0,0,0,0,0.0063,0.0071,0.0071,0.0098,0.0104,0.0136,0.0122,0.0121,0.0115,0.0111,0.0013,-0.001,-0.0064,-0.0158,-0.0181,-0.0231,-0.0225,-0.0456,-0.0459,-0.0462,-0.0386,-0.0385,-0.0384,0,0,0,0,0,0.0065,0.0071,0.0124,0.0097,0.0103,0.0102,0.012,0.012,0.0112,0.0029,0.0009,0.0103,-0.0061,-0.0088,-0.0172,-0.0219,-0.021,-0.0218,-0.0458,-0.046,-0.0462,-0.0386,0,0,0,0,0,0,0.0066,0.0074,0.0125,0.0126,0.0082,0.0099,0.0102,0.0118,0.0026,0.0013,0.0113,0.0111,-0.0059,-0.008,-0.0101,-0.0211,-0.0198,-0.0206,-0.0211,-0.046,-0.0462,-0.0463,0,0,0,0,0,0,0.007,0.0075,0.0125,0.0107,0.0106,0.0096,0.0099,0.0018,0.0019,0.0114,0.0112,0.0112,-0.0087,-0.0074,-0.0091,-0.0212,-0.0188,-0.0196,-0.0202,-0.0205,-0.0461,-0.0463,0,0,0,0,0,0,0.0072,0.0076,0.0107,0.0106,0.0105,0.012,0.0017,0.0015,0.0116,0.0114,0.0113,0.0111,-0.0084,-0.0098,-0.0084,-0.0197,-0.0208,-0.0189,-0.0194,-0.0198,-0.02,0,0,0,0,0,0,0,0.0074,0.0047,0.0115,0.0105,0.0105,0.0136,0.0137,0.0137,0.0116,0.0114,0.0113,0.0112,-0.0143,-0.0152,-0.016,-0.0185,0,0,-0.0188,-0.0192,0,0,0,0,0,0,0,0,0.0045,0.0046,0.0115,0.0115,0.0115,0.0136,0.0137,0.0137,0.0116,0.0115,0.0113,0.0112,-0.0145,-0.0152,-0.0159,0,0,0,0,0,0,0,0,0,0,0,0,0,0,0,0.0115,0.0115,0,0.0136,0.0137,0.0137,0.0116,0.0115,0.0114,0.0113,-0.0147,-0.0153,-0.0159,0,0,0,0,0,0,0,0,0,0,0,0,0,0,0,0,0,0,0,0,0,0,0,0,0,0,0,0,0,0,0,0,0,0,0,0,0,0,0,0,0,0,0,0,0,0,0,0,0,0,0,0,0,0,0,0,0,0,0,0,0,0,0,0,0,0,0,0,0]}],[{"header":{"parameterUnit":"kt","parameterCategory":2,"dx":1,"dy":1,"la1":30.253999710083008,"la2":30.299108505249023,"lo1":-89.0895004272461,"lo2":-89.04439544677734,"nx":28,"ny":28,"refTime":"2022-10-20T21:00:00:Z","depth":"4","parameterNumber":3,"parameterNumberName":"V-component_of_CURRENTS"},"data":[-0.0089,-0.0067,-0.0033,-0.0,0.0019,0.0023,0.0007,-0.0008,0.0007,-0.0005,-0.0005,-0.0029,-0.0045,-0.0021,-0.0072,-0.0086,-0.015,-0.0175,-0.0176,-0.0284,-0.0288,-0.0292,-0.0283,0,0,0,0,0,-0.0075,-0.0053,-0.0032,-0.0026,-0.0008,-0.0014,-0.0038,-0.0062,-0.0084,-0.0032,-0.0066,-0.0032,-0.0056,-0.0081,-0.0085,-0.0146,-0.0204,-0.0158,-0.025,-0.0286,-0.0291,-0.0281,0,0,0,0,0,0,-0.0054,-0.005,-0.0049,-0.0049,-0.0048,-0.0051,-0.0077,-0.0079,-0.0096,-0.0118,-0.0084,-0.0099,-0.0109,-0.0141,-0.0136,-0.0151,-0.018,-0.0213,-0.0221,-0.0226,-0.0206,-0.021,-0.0123,0,0,0,0,0,-0.0043,-0.0049,-0.0069,-0.0064,-0.0087,-0.0108,-0.0149,-0.0147,-0.0198,-0.0225,-0.0188,-0.0202,-0.0168,-0.019,-0.0189,-0.0199,-0.031,-0.0283,-0.0287,-0.0326,-0.0339,-0.0343,-0.0349,-0.0308,-0.0309,-0.0309,-0.0309,0,-0.0041,-0.0048,-0.0089,-0.0093,-0.0133,-0.0185,-0.0205,-0.0278,-0.0288,-0.0311,-0.0288,-0.0286,-0.0298,-0.0239,-0.0272,-0.0284,-0.0278,-0.0294,-0.0336,-0.0347,-0.0349,-0.0353,-0.0358,-0.0313,-0.0313,-0.0312,-0.0312,0,-0.0033,-0.0068,-0.0095,-0.0158,-0.0179,-0.0215,-0.0278,-0.0298,-0.0362,-0.0362,-0.0373,-0.0408,-0.0384,-0.0393,-0.0363,-0.0378,-0.035,-0.0329,-0.0376,-0.0378,-0.0363,-0.0365,-0.0319,-0.0317,-0.0316,-0.0315,-0.0315,0,-0.0052,-0.0078,-0.0142,-0.0162,-0.0192,-0.0257,-0.0296,-0.0347,-0.0396,-0.0397,-0.047,-0.0453,-0.0478,-0.0451,-0.0452,-0.041,-0.0415,-0.039,-0.0387,-0.0434,-0.0436,-0.0446,-0.045,-0.0408,-0.0408,-0.0408,-0.0408,0,-0.0066,-0.0123,-0.0149,-0.0173,-0.0233,-0.027,-0.0306,-0.0372,-0.0397,-0.046,-0.0477,-0.0495,-0.0489,-0.0484,-0.0461,-0.0481,-0.0414,-0.0439,-0.0401,-0.04,-0.0448,-0.0452,-0.0408,-0.0408,-0.0408,-0.0408,-0.0408,0,-0.0105,-0.0135,-0.0169,-0.0225,-0.0243,-0.0268,-0.0332,-0.0363,-0.0419,-0.0464,-0.0496,-0.0521,-0.0503,-0.0512,-0.0482,-0.0495,-0.0484,-0.0464,-0.0463,-0.0447,-0.0456,-0.0499,-0.0469,-0.047,-0.047,-0.047,-0.0471,0,-0.0103,-0.0146,-0.0187,-0.0227,-0.0252,-0.0312,-0.0333,-0.0383,-0.0437,-0.048,-0.0491,-0.0516,-0.0528,-0.0539,-0.0517,-0.05,-0.0479,-0.0491,-0.0493,-0.0493,-0.0461,-0.0425,-0.0482,-0.0476,-0.0475,-0.0475,-0.0475,0,-0.0104,-0.0187,-0.0201,-0.023,-0.0294,-0.0311,-0.0355,-0.0388,-0.0427,-0.0489,-0.0514,-0.0515,-0.0548,-0.0546,-0.0543,-0.0517,-0.0489,-0.053,-0.053,-0.0522,-0.0467,-0.0437,-0.0431,-0.0486,-0.0485,-0.0484,-0.0478,0,-0.0101,-0.0166,-0.019,-0.0248,-0.0276,-0.0312,-0.0351,-0.0405,-0.0467,-0.0491,-0.0537,-0.0561,-0.0588,-0.0571,-0.0576,-0.0544,-0.056,-0.0561,-0.0565,-0.0548,-0.055,-0.0547,-0.0594,-0.0595,-0.0595,-0.0596,0,0,-0.0077,-0.0144,-0.0206,-0.0234,-0.0262,-0.0322,-0.0342,-0.0371,-0.0454,-0.0486,-0.0528,-0.0578,-0.0601,-0.058,-0.0572,-0.0591,-0.0595,-0.0592,-0.0562,-0.0559,-0.0555,-0.0556,-0.0552,-0.0597,-0.0597,-0.0597,-0.0597,0,-0.006,-0.0156,-0.0197,-0.0225,-0.0291,-0.0301,-0.033,-0.0384,-0.0427,-0.0492,-0.052,-0.0556,-0.0613,-0.0597,-0.0594,-0.0601,-0.0603,-0.0603,-0.0585,-0.0568,-0.0563,-0.0559,-0.0559,-0.0555,-0.0599,-0.0598,-0.0598,0,-0.004,-0.0092,-0.0136,-0.0209,-0.0246,-0.0262,-0.0297,-0.0355,-0.0377,-0.0434,-0.0516,-0.0545,-0.0561,-0.0583,-0.0608,-0.0612,-0.0614,-0.0625,-0.0623,-0.0626,-0.0609,-0.0604,-0.06,-0.0654,-0.0654,-0.0654,0,0,-0.0021,-0.0087,-0.0136,-0.0207,-0.023,-0.0273,-0.03,-0.0336,-0.039,-0.0426,-0.0484,-0.0536,-0.055,-0.0585,-0.0611,-0.0643,-0.0645,-0.063,-0.0627,-0.0625,-0.0627,-0.061,-0.0605,-0.0654,-0.0654,-0.0654,0,0,0.0001,-0.008,-0.0125,-0.0206,-0.0237,-0.0255,-0.0293,-0.0326,-0.0396,-0.0439,-0.0477,-0.0497,-0.0558,-0.058,-0.0578,-0.0591,-0.0604,-0.0606,-0.0572,-0.0569,-0.0567,-0.0559,-0.0571,0,0,0,0,0,-0.0013,-0.0064,-0.0105,-0.0127,-0.022,-0.0237,-0.0244,-0.0297,-0.0346,-0.0365,-0.0442,-0.0452,-0.0573,-0.0573,-0.0585,-0.0565,-0.0654,-0.0654,-0.0654,-0.0617,-0.0614,-0.0611,0,0,0,0,0,0,-0.0021,-0.0047,-0.0102,-0.0129,-0.0151,-0.0236,-0.0265,-0.0278,-0.0346,-0.0356,-0.0435,-0.0451,-0.0465,-0.0568,-0.0579,-0.0558,-0.0567,-0.0654,-0.0654,-0.0654,-0.0616,-0.0613,-0.0611,0,0,0,0,0,-0.0028,-0.0049,-0.0204,-0.0127,-0.0145,-0.0217,-0.0267,-0.0278,-0.034,-0.038,-0.0399,-0.0391,-0.0462,-0.0478,-0.0574,-0.0552,-0.056,-0.0564,-0.0654,-0.0654,-0.0654,-0.0615,0,0,0,0,0,0,-0.0033,-0.0034,-0.0207,-0.0212,-0.0151,-0.0213,-0.0231,-0.0278,-0.0363,-0.038,-0.0332,-0.0339,-0.0459,-0.0472,-0.0484,-0.0548,-0.0554,-0.0558,-0.056,-0.0654,-0.0654,-0.0654,0,0,0,0,0,0,-0.0023,-0.0038,-0.0209,-0.0237,-0.0245,-0.021,-0.0227,-0.026,-0.0365,-0.0309,-0.0318,-0.0335,-0.0469,-0.0468,-0.0478,-0.0523,-0.0549,-0.0553,-0.0556,-0.0558,-0.0654,-0.0654,0,0,0,0,0,0,-0.0029,-0.0042,-0.0235,-0.0242,-0.0249,-0.0304,-0.0241,-0.035,-0.0348,-0.0305,-0.0355,-0.0358,-0.0465,-0.0475,-0.0472,-0.0513,-0.0521,-0.0549,-0.0552,-0.0554,-0.0555,0,0,0,0,0,0,0,-0.0034,0.0047,-0.0186,-0.0246,-0.0252,-0.026,-0.0261,-0.0261,-0.0348,-0.0351,-0.0354,-0.0357,-0.0528,-0.0532,-0.0536,-0.0505,0,0,-0.0549,-0.0551,0,0,0,0,0,0,0,0,0.0052,0.0048,-0.0186,-0.0187,-0.0189,-0.026,-0.0261,-0.0261,-0.0349,-0.0351,-0.0354,-0.0356,-0.0529,-0.0532,-0.0536,0,0,0,0,0,0,0,0,0,0,0,0,0,0,0,-0.0186,-0.0187,0,-0.026,-0.0261,-0.0261,-0.0349,-0.0351,-0.0353,-0.0355,-0.053,-0.0532,-0.0535,0,0,0,0,0,0,0,0,0,0,0,0,0,0,0,0,0,0,0,0,0,0,0,0,0,0,0,0,0,0,0,0,0,0,0,0,0,0,0,0,0,0,0,0,0,0,0,0,0,0,0,0,0,0,0,0,0,0,0,0,0,0,0,0,0,0,0,0,0]}]]]